Rockford, IL

12:50 AM CST on February 20, 2018 (GMT -0600)
Greater Rockford

Weather History for KRFD - March, 2014

Change the Weather History Date:

Sunday, March 30, 2014

  Actual Average Record
Temperature  
Mean Temperature 41 °F 43 °F  
Max Temperature 57 °F 54 °F 82 °F (1910)
Min Temperature 24 °F 32 °F 6 °F (1954)
Degree Days  
Heating Degree Days 24 22  
Month to date heating degree days 1080 842  
Since 1 July heating degree days 6972 5844  
Cooling Degree Days 0 0  
Month to date cooling degree days 0 0  
Year to date cooling degree days 0 0  
Moisture  
Dew Point 29 °F    
Average Humidity 64    
Maximum Humidity 81    
Minimum Humidity 46    
Precipitation  
Precipitation 0.00 in 0.09 in 1.47 in (2017)
Month to date precipitation 1.03 2.22  
Year to date precipitation 4.77 5.00  
Snow  
Snow 0.00 in 0.10 in 3.50 in (1928)
Month to date snowfall 9.1 4.7  
Since 1 July snowfall 56.6 35.7  
Snow Depth 0.00 in    
Sea Level Pressure  
Sea Level Pressure 30.17 in    
Wind  
Wind Speed 12 mph (South)    
Max Wind Speed 22 mph    
Max Gust Speed 27 mph    
Visibility 10 miles    
Events      
T = Trace of Precipitation, MM = Missing Value Source: NWS Daily Summary

Daily Weather History Graph

Daily Weather History Graph

Search for Another Location

Airport or City:

Trip Planner

Search our weather history database for the weather conditions in past years. The results will help you decide how hot, cold, wet, or windy it might be!

Date:

Astronomy

Mar. 30, 2014 Rise Set
Actual Time 6:42 AM CDT 7:19 PM CDT
Civil Twilight 6:14 AM CDT 7:48 PM CDT
Nautical Twilight 5:40 AM CDT 8:21 PM CDT
Astronomical Twilight 5:06 AM CDT 8:56 PM CDT
Moon 6:28 AM CDT (3/30) 7:33 PM CDT (3/30)
Length of Visible Light 13h 33m
Length of Day
12h 37m
Waning Crescent, 0% of the Moon is Illuminated
Mar 30
Waning Crescent
Mar 30
New
Apr 7
First Quarter
Apr 15
Full
Apr 22
Last Quarter

Hourly Weather History & Observations

Time (CDT) Temp. Windchill Dew Point Humidity Pressure Visibility Wind Dir Wind Speed Gust Speed Precip Events Conditions
12:54 AM 30.0 °F - 18.0 °F 61% 30.30 in 10.0 mi Calm Calm - N/A   Clear
1:54 AM 28.0 °F 24.2 °F 21.0 °F 75% 30.28 in 10.0 mi SSW 3.5 mph - N/A   Clear
2:54 AM 27.0 °F - 21.0 °F 78% 30.28 in 10.0 mi Calm Calm - N/A   Clear
3:54 AM 24.1 °F 19.7 °F 19.0 °F 81% 30.27 in 10.0 mi SE 3.5 mph - N/A   Clear
4:54 AM 28.0 °F 22.8 °F 19.9 °F 72% 30.24 in 10.0 mi SSE 4.6 mph - N/A   Clear
5:54 AM 27.0 °F 23.0 °F 21.0 °F 78% 30.26 in 10.0 mi South 3.5 mph - N/A   Clear
6:54 AM 26.1 °F - 19.9 °F 78% 30.26 in 10.0 mi Calm Calm - N/A   Partly Cloudy
7:54 AM 30.0 °F 23.2 °F 21.9 °F 72% 30.27 in 10.0 mi South 6.9 mph - N/A   Partly Cloudy
8:54 AM 35.1 °F 28.6 °F 24.1 °F 64% 30.27 in 10.0 mi SSW 8.1 mph - N/A   Partly Cloudy
9:54 AM 39.9 °F 31.4 °F 23.0 °F 51% 30.25 in 10.0 mi South 16.1 mph - N/A   Partly Cloudy
10:54 AM 44.1 °F 38.1 °F 26.1 °F 49% 30.24 in 10.0 mi South 11.5 mph - N/A   Partly Cloudy
11:54 AM 46.9 °F - 28.9 °F 50% 30.22 in 10.0 mi South 13.8 mph - N/A   Partly Cloudy
12:54 PM 50.0 °F - 30.9 °F 48% 30.18 in 10.0 mi South 15.0 mph 24.2 mph N/A   Clear
1:54 PM 53.1 °F - 33.1 °F 47% 30.16 in 10.0 mi South 19.6 mph 25.3 mph N/A   Partly Cloudy
2:54 PM 55.0 °F - 35.1 °F 47% 30.12 in 10.0 mi South 18.4 mph 24.2 mph N/A   Partly Cloudy
3:54 PM 55.9 °F - 36.0 °F 47% 30.10 in 10.0 mi South 19.6 mph - N/A   Partly Cloudy
4:54 PM 57.0 °F - 37.0 °F 47% 30.07 in 10.0 mi South 19.6 mph - N/A   Mostly Cloudy
5:54 PM 55.0 °F - 37.0 °F 51% 30.06 in 10.0 mi South 17.3 mph - N/A   Overcast
6:54 PM 52.0 °F - 37.9 °F 59% 30.04 in 10.0 mi South 13.8 mph - N/A   Overcast
7:54 PM 48.9 °F - 39.0 °F 69% 30.04 in 10.0 mi South 13.8 mph - N/A   Mostly Cloudy
8:54 PM 48.0 °F - 37.9 °F 68% 30.04 in 10.0 mi South 15.0 mph - N/A   Overcast
9:54 PM 46.9 °F - 37.0 °F 68% 30.03 in 10.0 mi South 17.3 mph - N/A   Overcast
10:54 PM 46.0 °F 40.2 °F 36.0 °F 68% 30.03 in 10.0 mi South 12.7 mph - N/A   Scattered Clouds
11:54 PM 44.1 °F 38.1 °F 36.0 °F 73% 30.03 in 10.0 mi South 11.5 mph - N/A   Mostly Cloudy